Location: Poughquag
(41.6090°N, 73.6820°W)
Time: 03:57:47
(UTC-05:00)

S-56A Canister/Altair - All Passes

Search period start: 05 December 2023 00:00
Search period end: 15 December 2023 00:00
Orbit: 640 x 2489 km, 38.8° (Epoch: 04 December)

Date Brightness Start Highest point End Pass type
(mag) Time Alt. Az. Time Alt. Az. Time Alt. Az.
05 Dec - 10:22:21 10° SSW 10:26:07 21° SSE 10:29:30 10° ESE daylight
05 Dec - 12:24:46 10° WSW 12:29:13 53° SSE 12:33:46 10° E daylight
05 Dec - 14:28:05 10° W 14:32:32 59° S 14:38:02 10° ESE daylight
05 Dec - 16:31:32 10° W 16:36:00 29° SSW 16:41:53 10° SE daylight
06 Dec - 09:49:25 10° SSW 09:53:07 19° SSE 09:56:22 10° ESE daylight
06 Dec - 11:51:42 10° WSW 11:56:16 50° SSE 12:00:38 10° E daylight
06 Dec - 13:55:09 10° W 13:59:33 61° S 14:04:41 10° ESE daylight
06 Dec - 15:58:36 10° W 16:02:56 31° SSW 16:08:31 10° SE daylight
07 Dec - 09:16:28 10° S 09:20:05 17° SSE 09:23:13 10° ESE daylight
07 Dec - 11:18:34 10° WSW 11:23:18 46° SSE 11:27:35 10° E daylight
07 Dec - 13:22:10 10° W 13:26:34 62° S 13:31:25 10° ESE daylight
07 Dec - 15:25:40 10° W 15:29:53 33° SSW 15:35:11 10° SE daylight
07 Dec - 17:31:52 10° SW 17:33:23 11° SSW 17:35:00 10° SSW visible
08 Dec - 08:43:31 10° S 08:47:01 16° SSE 08:50:02 10° ESE daylight
08 Dec - 10:45:22 10° SW 10:50:20 42° SSE 10:54:35 10° E daylight
08 Dec - 12:49:06 10° W 12:53:36 63° S 12:58:14 10° ESE daylight
08 Dec - 14:52:42 10° W 14:56:53 36° SSW 15:01:54 10° SE daylight
08 Dec - 16:58:12 10° SW 17:00:15 12° SSW 17:02:30 10° S visible
09 Dec - 08:10:35 10° S 08:13:55 14° SSE 08:16:49 10° ESE daylight
09 Dec - 10:12:06 10° SW 10:17:20 39° SSE 10:21:36 10° E daylight
09 Dec - 12:15:58 10° W 12:20:38 63° S 12:25:07 10° E daylight
09 Dec - 14:19:43 10° W 14:23:54 39° SSW 14:28:41 10° SE daylight
09 Dec - 16:24:47 10° WSW 16:27:09 13° SSW 16:29:48 10° S daylight
10 Dec - 07:37:40 10° S 07:40:47 13° SSE 07:43:31 10° ESE daylight
10 Dec - 09:38:45 10° SW 09:44:19 37° SSE 09:48:41 10° E daylight
10 Dec - 11:42:45 10° WSW 11:47:40 63° S 11:52:05 10° E daylight
10 Dec - 13:46:41 10° W 13:50:55 42° SSW 13:55:32 10° SE daylight
10 Dec - 15:51:27 10° WSW 15:54:05 14° SSW 15:57:02 10° S daylight
11 Dec - 07:04:51 10° S 07:07:36 12° SSE 07:10:04 10° SE daylight
11 Dec - 09:05:22 10° SW 09:11:16 35° SSE 09:15:45 10° E daylight
11 Dec - 11:09:27 10° WSW 11:14:40 63° S 11:19:06 10° E daylight
11 Dec - 13:13:36 10° W 13:17:57 46° SSW 13:22:26 10° ESE daylight
11 Dec - 15:18:11 10° WSW 15:21:03 16° SSW 15:24:14 10° S daylight
12 Dec - 06:32:13 10° SSE 06:34:24 11° SSE 06:36:24 10° SE visible
12 Dec - 08:31:55 10° SW 08:38:10 33° SSE 08:42:51 10° E daylight
12 Dec - 10:36:04 10° WSW 10:41:40 61° S 10:46:10 10° E daylight
12 Dec - 12:40:27 10° W 12:45:00 51° SSW 12:49:24 10° ESE daylight
12 Dec - 14:44:57 10° WSW 14:48:03 18° SSW 14:51:25 10° SSE daylight
13 Dec - 06:00:09 10° SSE 06:01:09 10° SE 06:02:06 10° SE visible
13 Dec - 07:58:24 10° SW 08:05:02 31° SSE 08:09:55 10° E daylight
13 Dec - 10:02:35 10° WSW 10:08:39 60° S 10:13:16 10° E daylight
13 Dec - 12:07:12 10° W 12:12:03 55° S 12:16:24 10° ESE daylight
13 Dec - 14:11:43 10° WSW 14:15:03 20° SSW 14:18:35 10° SSE daylight
14 Dec - 07:24:51 10° SSW 07:31:51 30° SSE 07:36:58 10° E daylight
14 Dec - 09:29:00 10° WSW 09:35:35 58° S 09:40:24 10° E daylight
14 Dec - 11:33:53 10° W 11:39:04 59° S 11:43:27 10° ESE daylight
14 Dec - 13:38:28 10° W 13:42:06 23° SSW 13:45:46 10° SSE daylight
